Regional Weather Roundup
Issued by NWS

Home | Current Version | Previous Version | Text Only | Print | Product List | Glossary Off
Versions: 1 2 3 4 5 6 7 8 9 10 11 12 13 14 15 16 17 18 19 20 21 22 23 24 25 26 27 28 29 30 31 32 33 34 35 36 37 38 39 40 41 42 43 44 45 46 47 48 49 50

000
ASUS43 KFSD 180110
RWRSD

WEATHER ROUNDUP FOR SOUTH DAKOTA
NATIONAL WEATHER SERVICE SIOUX FALLS SD
700 PM CST WED DEC 17 2014

NOTE: "FAIR" INDICATES FEW OR NO CLOUDS BELOW 12,000 FEET WITH NO
SIGNIFICANT WEATHER AND/OR OBSTRUCTIONS TO VISIBILITY.


SDZ001>005-009-010-012>017-180200-
NORTHWEST AND NORTH CENTRAL SOUTH DAKOTA

CITY           SKY/WX    TMP DP  RH WIND       PRES   REMARKS
BUFFALO          N/A     20  17  88 SE12      29.95F WCI   8
FAITH            N/A     19  15  84 E8        30.08F WCI   9
MOBRIDGE       CLOUDY    19  11  70 SE12      30.16F WCI   7
$$

SDZ012>016-024>037-041>051-057-063-072>074-180200-
SOUTHWEST AND SOUTH CENTRAL SOUTH DAKOTA

CITY           SKY/WX    TMP DP  RH WIND       PRES   REMARKS
RAPID CTY ARPT CLOUDY    22  20  92 NE7       30.02R WCI  13
PIERRE         CLOUDY    18  15  88 E13       30.17F WCI   5
CUSTER         CLEAR     24  17  74 CALM      29.88R
ELLSWORTH AFB  CLOUDY    22  20  94 E5        30.01S WCI  16
PHILIP         CLOUDY    22  18  85 E12       30.10R WCI  10
PINE RIDGE     PTCLDY    20  17  88 SW6       30.00R WCI  12
SPEARFISH      CLOUDY    19  18  93 CALM      29.98S FOG
WINNER         CLOUDY    21  18  88 SE12      30.15S WCI   9
$$

SDZ004>011-016>023-039-040-180200-
NORTHEAST SOUTH DAKOTA

CITY           SKY/WX    TMP DP  RH WIND       PRES   REMARKS
ABERDEEN       PTCLDY     8   4  83 S3        30.29R
WATERTOWN      PTCLDY    12   7  80 SE5       30.25R WCI   4
SISSETON         N/A      4   1  88 W3        30.29R
$$

SDZ017-020-022-023-036>040-048>070-180200-
SOUTHEAST SOUTH DAKOTA

CITY           SKY/WX    TMP DP  RH WIND       PRES   REMARKS
SIOUX FALLS    PTCLDY    11   8  88 NE7       30.27F WCI   0
HURON          CLOUDY    11   8  88 E3        30.27S
CHAMBERLAIN    CLOUDY    16  13  88 E9        30.20S WCI   4
MITCHELL       PTCLDY    13  10  88 E3        30.27F
YANKTON        PTCLDY    14  10  85 NE5       30.27S WCI   6
$$

ABBREVIATIONS USED IN REMARKS
   TC - TEMPERATURE IN CELSIUS
  WCI - WIND CHILL INDEX
   HX - HEAT INDEX
  VSB - VISIBILITY



USA.gov is the U.S. government's official web portal to all federal, state and local government web resources and services.